DW5588 Weather Reports


Display with metric or nautical units.
time (UTC)temp
F
wind
direction
speed
MPH
gust
MPH
rain 1hr
in
rain 24hr
in
rain mn
in
humidity
%
barometer
mb
20260507074003 39 318 1.0 4.0 0.00 0.00 0.00 69 1010.7
20260507073504 39 314 0.0 3.0 0.00 0.00 0.00 70 1010.7
20260507073004 39 314 0.0 1.0 0.00 0.00 0.00 69 1010.7
20260507072503 40 314 0.0 2.0 0.00 0.00 0.00 69 1010.7
20260507071504 40 322 0.0 3.0 0.00 0.00 0.00 69 1010.7
20260507070504 40 358 0.0 4.0 0.00 0.00 0.00 67 1010.7
20260507070008 41 53 0.0 2.0 0.00 0.00 0.00 68 1010.7
20260507065503 41 32 0.0 2.0 0.00 0.00 0.00 67 1010.7
20260507065004 41 321 0.0 3.0 0.00 0.00 0.00 66 1010.7
20260507064504 42 320 0.0 3.0 0.00 0.00 0.00 66 1010.7
20260507064004 42 62 0.0 1.0 0.00 0.00 0.00 64 1010.7
20260507063004 42 62 0.0 1.0 0.00 0.00 0.00 62 1010.8
20260507062504 42 61 0.0 1.0 0.00 0.00 0.00 62 1010.8
20260507062004 42 60 0.0 1.0 0.00 0.00 0.00 61 1010.8
20260507061504 43 0 0.0 0.0 0.00 0.00 0.00 61 1010.8
20260507061004 43 316 0.0 2.0 0.00 0.00 0.00 61 1010.8
20260507060504 43 316 0.0 2.0 0.00 0.00 0.00 60 1010.8
20260507060004 43 316 0.0 2.0 0.00 0.00 0.00 60 1011.1
20260507055504 43 316 0.0 2.0 0.00 0.00 0.00 60 1011.1
20260507054504 44 316 0.0 5.0 0.00 0.00 0.00 58 1011.1
20260507054003 44 316 0.0 5.0 0.00 0.00 0.00 57 1011.1
20260507053504 44 313 1.0 5.0 0.00 0.00 0.00 57 1011.1
20260507052504 44 310 0.0 3.0 0.00 0.00 0.00 58 1011.2
20260507051504 44 311 0.0 3.0 0.00 0.00 0.00 57 1011.2
20260507051004 44 312 0.0 3.0 0.00 0.00 0.00 57 1011.2
20260507050504 44 311 0.0 3.0 0.00 0.00 0.00 57 1011.2
20260507050005 44 308 0.0 3.0 0.00 0.00 0.00 57 1011.2
20260507045504 44 308 0.0 3.0 0.00 0.00 0.00 57 1011.2
20260507045004 44 0 0.0 0.0 0.00 0.00 0.00 57 1011.2
20260507044504 44 0 0.0 0.0 0.00 0.00 0.00 57 1011.1
20260507044004 44 0 0.0 0.0 0.00 0.00 0.00 57 1011.1
20260507043504 44 0 0.0 0.0 0.00 0.00 0.00 57 1011.1
20260507043004 45 298 0.0 2.0 0.00 0.00 0.00 56 1011.1
20260507042004 45 299 0.0 2.0 0.00 0.00 0.00 55 1011.1
20260507041504 45 297 0.0 3.0 0.00 0.00 0.00 55 1011.0
20260507041003 45 294 1.0 3.0 0.00 0.00 0.00 54 1011.0
20260507040005 45 294 1.0 3.0 0.00 0.00 0.00 53 1011.1
20260507035504 45 293 1.0 3.0 0.00 0.00 0.00 53 1011.1
20260507035003 45 292 0.0 4.0 0.00 0.00 0.00 53 1011.1
20260507034004 45 311 0.0 3.0 0.00 0.00 0.00 53 1011.0
20260507033504 46 305 0.0 3.0 0.00 0.00 0.00 53 1011.0
20260507033004 46 302 1.0 3.0 0.00 0.00 0.00 51 1011.2
20260507032504 46 301 1.0 3.0 0.00 0.00 0.00 51 1011.2
20260507032003 46 302 0.0 3.0 0.00 0.00 0.00 51 1011.2
20260507031504 46 295 0.0 3.0 0.00 0.00 0.00 51 1011.1
20260507031004 46 301 0.0 3.0 0.00 0.00 0.00 51 1011.1
20260507030004 46 303 1.0 3.0 0.00 0.00 0.00 50 1010.9
20260507025504 46 307 0.0 3.0 0.00 0.00 0.00 50 1010.9
20260507025004 46 303 0.0 3.0 0.00 0.00 0.00 50 1010.9
20260507024504 46 309 0.0 3.0 0.00 0.00 0.00 49 1010.9
20260507024004 46 316 0.0 3.0 0.00 0.00 0.00 50 1010.9
20260507023504 46 309 1.0 4.0 0.00 0.00 0.00 50 1010.9
20260507023004 47 307 1.0 4.0 0.00 0.00 0.00 50 1010.8
20260507022504 47 312 0.0 3.0 0.00 0.00 0.00 49 1010.8
20260507022003 47 314 0.0 3.0 0.00 0.00 0.00 49 1010.8
20260507021504 47 311 0.0 3.0 0.00 0.00 0.00 49 1010.8
20260507021004 47 308 0.0 1.0 0.00 0.00 0.00 49 1010.8
20260507020504 47 318 0.0 2.0 0.00 0.00 0.00 49 1010.8
20260507015004 48 306 0.0 4.0 0.00 0.00 0.00 46 1010.7
20260507014504 48 309 1.0 5.0 0.00 0.00 0.00 46 1010.6
20260507014004 48 312 1.0 6.0 0.00 0.00 0.00 46 1010.6
20260507013504 48 311 1.0 6.0 0.00 0.00 0.00 45 1010.6
20260507013004 49 307 2.0 5.0 0.00 0.00 0.00 45 1010.5
20260507012504 49 304 2.0 5.0 0.00 0.00 0.00 44 1010.5
20260507012004 49 308 2.0 7.0 0.00 0.00 0.00 43 1010.5
20260507011503 49 301 3.0 7.0 0.00 0.00 0.00 42 1010.3
20260507011004 50 294 3.0 8.0 0.00 0.00 0.00 42 1010.3
20260507010004 50 307 3.0 9.0 0.00 0.00 0.00 43 1010.3
20260507005504 50 310 4.0 9.0 0.00 0.00 0.00 43 1010.3
20260507005004 50 306 3.0 8.0 0.00 0.00 0.00 43 1010.3
20260507004504 50 305 4.0 9.0 0.00 0.00 0.00 42 1010.1
20260507004004 50 307 3.0 9.0 0.00 0.00 0.00 42 1010.1
20260507003503 50 310 2.0 8.0 0.00 0.00 0.00 42 1010.1
20260507003004 50 308 3.0 8.0 0.00 0.00 0.00 43 1009.9
20260507002503 50 305 4.0 11.0 0.00 0.00 0.00 42 1009.9
20260507002004 50 308 5.0 11.0 0.00 0.00 0.00 42 1009.9
20260507001004 50 309 4.0 10.0 0.00 0.00 0.00 42 1009.8
20260507000503 50 302 3.0 10.0 0.00 0.00 0.00 41 1009.8
20260507000004 51 306 3.0 9.0 0.00 0.00 0.00 42 1009.7
20260506234504 51 306 4.0 11.0 0.00 0.00 0.00 40 1009.6
20260506234003 51 309 3.0 8.0 0.00 0.00 0.00 41 1009.6
20260506233504 51 303 4.0 11.0 0.00 0.00 0.00 40 1009.6
20260506233004 51 297 4.0 11.0 0.00 0.00 0.00 40 1009.6
20260506232504 51 303 3.0 9.0 0.00 0.00 0.00 39 1009.6
20260506232004 51 311 3.0 8.0 0.00 0.00 0.00 39 1009.6
20260506231504 51 312 4.0 11.0 0.00 0.00 0.00 39 1009.6
20260506230503 52 298 4.0 10.0 0.00 0.00 0.00 40 1009.6
20260506230004 52 298 3.0 10.0 0.00 0.00 0.00 38 1009.6
20260506225504 52 298 3.0 8.0 0.00 0.00 0.00 38 1009.6
20260506225004 52 300 4.0 8.0 0.00 0.00 0.00 39 1009.6
20260506224003 52 304 4.0 9.0 0.00 0.00 0.00 38 1009.5
20260506223504 52 306 3.0 9.0 0.00 0.00 0.00 38 1009.5
20260506223004 52 305 2.0 7.0 0.00 0.00 0.00 38 1009.6
20260506222504 52 306 3.0 7.0 0.00 0.00 0.00 39 1009.6
20260506222004 52 311 3.0 7.0 0.00 0.00 0.00 38 1009.6
20260506221504 52 310 2.0 7.0 0.00 0.00 0.00 38 1009.5
20260506221004 52 304 1.0 4.0 0.00 0.00 0.00 38 1009.5
20260506220504 52 302 2.0 5.0 0.00 0.00 0.00 38 1009.5
20260506220004 52 301 3.0 7.0 0.00 0.00 0.00 39 1009.5
20260506215504 52 299 5.0 13.0 0.00 0.00 0.00 41 1009.5
20260506215004 52 298 5.0 13.0 0.00 0.00 0.00 37 1009.5
20260506214004 52 297 5.0 10.0 0.00 0.00 0.00 38 1009.4
20260506213504 52 297 5.0 13.0 0.00 0.00 0.00 38 1009.4
20260506213004 52 299 4.0 13.0 0.00 0.00 0.00 37 1009.5
20260506212503 52 299 5.0 10.0 0.00 0.00 0.00 40 1009.5
20260506212004 52 302 5.0 10.0 0.00 0.00 0.00 39 1009.5
20260506211504 52 299 5.0 10.0 0.00 0.00 0.00 39 1009.5
20260506211004 52 297 6.0 14.0 0.00 0.00 0.00 38 1009.5
20260506210503 52 301 6.0 14.0 0.00 0.00 0.00 38 1009.5
20260506210004 52 303 5.0 11.0 0.00 0.00 0.00 39 1009.5
20260506205504 52 307 5.0 16.0 0.00 0.00 0.00 41 1009.5
20260506205003 52 307 5.0 16.0 0.00 0.00 0.00 41 1009.5
20260506204004 52 299 4.0 12.0 0.00 0.00 0.00 40 1009.7
20260506203004 52 299 5.0 11.0 0.00 0.00 0.00 40 1009.7
20260506202504 52 301 7.0 12.0 0.00 0.00 0.00 40 1009.7
20260506202004 52 302 6.0 12.0 0.00 0.00 0.00 40 1009.7
20260506200504 52 305 7.0 13.0 0.00 0.00 0.00 39 1009.7
20260506195504 53 286 2.0 8.0 0.00 0.00 0.00 38 1009.7
20260506195004 53 277 2.0 6.0 0.00 0.00 0.00 42 1009.7
20260506194004 52 298 4.0 12.0 0.00 0.00 0.00 41 1009.9
20260506193504 52 298 5.0 12.0 0.00 0.00 0.00 39 1009.9
20260506193004 51 296 4.0 12.0 0.00 0.00 0.00 39 1009.9
20260506192504 52 292 2.0 10.0 0.00 0.00 0.00 39 1009.9
20260506192004 51 308 1.0 6.0 0.00 0.00 0.00 41 1009.9
20260506191503 51 301 2.0 8.0 0.00 0.00 0.00 41 1010.1
20260506190504 51 293 5.0 11.0 0.00 0.00 0.00 41 1010.1
20260506185504 52 293 3.0 10.0 0.00 0.00 0.00 39 1010.1
20260506185004 53 275 2.0 8.0 0.00 0.00 0.00 41 1010.1
20260506184004 51 313 1.0 7.0 0.00 0.00 0.00 45 1010.2
20260506183503 51 308 2.0 7.0 0.00 0.00 0.00 43 1010.2
20260506183005 50 299 4.0 9.0 0.00 0.00 0.00 43 1010.2
20260506182004 50 310 3.0 10.0 0.00 0.00 0.00 45 1010.2
20260506181504 50 313 3.0 10.0 0.00 0.00 0.00 43 1010.2
20260506181004 50 303 3.0 10.0 0.00 0.00 0.00 42 1010.3
20260506180504 50 300 4.0 11.0 0.00 0.00 0.00 43 1010.2
20260506174004 50 259 1.0 7.0 0.00 0.00 0.00 43 1010.6
20260506173504 50 211 2.0 8.0 0.00 0.00 0.00 43 1010.6
20260506172504 50 293 3.0 8.0 0.00 0.00 0.00 43 1010.7
20260506172004 50 296 4.0 10.0 0.00 0.00 0.00 43 1010.7
20260506171504 50 297 5.0 10.0 0.00 0.00 0.00 41 1010.6
20260506171004 50 298 4.0 10.0 0.00 0.00 0.00 44 1010.7
20260506170504 50 299 3.0 9.0 0.00 0.00 0.00 42 1010.6
20260506170004 50 300 4.0 10.0 0.00 0.00 0.00 42 1010.7
20260506165503 50 301 4.0 10.0 0.00 0.00 0.00 43 1010.7
20260506165004 50 292 2.0 9.0 0.00 0.00 0.00 46 1010.8
20260506164504 50 301 2.0 7.0 0.00 0.00 0.00 44 1010.8
20260506164004 50 309 1.0 7.0 0.00 0.00 0.00 50 1010.7
20260506163504 50 312 0.0 4.0 0.00 0.00 0.00 49 1010.7
20260506163004 49 299 1.0 7.0 0.00 0.00 0.00 48 1011.1
20260506162504 49 300 3.0 9.0 0.00 0.00 0.00 47 1011.1
20260506161004 50 308 2.0 8.0 0.00 0.00 0.00 47 1011.1
20260506160504 50 306 2.0 7.0 0.00 0.00 0.00 46 1011.1
20260506160004 50 247 2.0 6.0 0.00 0.00 0.00 49 1011.2
20260506155504 49 287 2.0 9.0 0.00 0.00 0.00 45 1011.3
20260506155004 48 301 2.0 9.0 0.00 0.00 0.00 50 1011.3
20260506154004 48 309 1.0 6.0 0.00 0.00 0.00 53 1011.3
20260506153504 48 310 1.0 6.0 0.00 0.00 0.00 50 1011.3
20260506153004 48 308 2.0 6.0 0.00 0.00 0.00 52 1011.3
20260506152504 48 304 1.0 6.0 0.00 0.00 0.00 54 1011.2
20260506151504 48 318 0.0 2.0 0.00 0.00 0.00 56 1011.1
20260506151004 47 307 0.0 3.0 0.00 0.00 0.00 54 1011.1
20260506150505 47 313 1.0 4.0 0.00 0.00 0.00 55 1011.1
20260506150004 46 318 1.0 6.0 0.00 0.00 0.00 58 1011.0
20260506145504 46 20 1.0 6.0 0.00 0.00 0.00 57 1011.0
20260506145004 46 73 1.0 4.0 0.00 0.00 0.00 56 1011.0
20260506144504 46 45 1.0 3.0 0.00 0.00 0.00 56 1010.9
20260506144004 46 323 1.0 5.0 0.00 0.00 0.00 59 1011.0
20260506143504 46 317 1.0 5.0 0.00 0.00 0.00 59 1010.9
20260506143004 46 326 0.0 4.0 0.00 0.00 0.00 58 1010.8
20260506142504 46 36 0.0 3.0 0.00 0.00 0.00 58 1010.8
20260506142005 46 20 0.0 3.0 0.00 0.00 0.00 60 1010.8
20260506141504 45 319 1.0 5.0 0.00 0.00 0.00 59 1010.7
20260506141005 44 20 1.0 5.0 0.00 0.00 0.00 62 1010.8
20260506140504 44 19 1.0 7.0 0.00 0.00 0.00 60 1010.8
20260506135505 44 15 1.0 7.0 0.00 0.00 0.00 63 1010.9
20260506135004 44 351 1.0 7.0 0.00 0.00 0.00 61 1010.8
20260506134504 44 313 0.0 4.0 0.00 0.00 0.00 62 1010.9
20260506134004 44 316 0.0 3.0 0.00 0.00 0.00 63 1010.9
20260506133504 43 345 1.0 3.0 0.00 0.00 0.00 64 1010.9
20260506133004 43 50 0.0 3.0 0.00 0.00 0.00 64 1010.9
20260506132004 42 358 0.0 3.0 0.00 0.00 0.00 64 1010.9
20260506131504 42 316 0.0 3.0 0.00 0.00 0.00 67 1010.7
20260506131004 42 23 1.0 5.0 0.00 0.00 0.00 67 1010.7
20260506130005 42 39 1.0 6.0 0.00 0.00 0.00 66 1010.8
20260506125504 42 348 0.0 3.0 0.00 0.00 0.00 67 1010.8
20260506125004 42 322 0.0 6.0 0.00 0.00 0.00 68 1010.8
20260506124504 41 322 0.0 6.0 0.00 0.00 0.00 67 1010.6
20260506124004 41 62 1.0 5.0 0.00 0.00 0.00 67 1010.6
20260506123004 41 29 0.0 3.0 0.00 0.00 0.00 67 1010.2
20260506122504 41 33 0.0 3.0 0.00 0.00 0.00 69 1010.2
20260506122004 40 42 0.0 4.0 0.00 0.00 0.00 71 1010.2
20260506121504 40 57 0.0 4.0 0.00 0.00 0.00 72 1009.9
20260506121004 39 57 1.0 5.0 0.00 0.00 0.00 73 1009.9
20260506115504 38 52 0.0 3.0 0.00 0.00 0.00 76 1009.6
20260506115004 38 66 1.0 3.0 0.00 0.00 0.00 76 1009.6
20260506114504 37 69 1.0 3.0 0.00 0.00 0.00 77 1009.6
20260506114004 37 62 1.0 4.0 0.00 0.00 0.00 77 1009.6
20260506113505 37 62 1.0 5.0 0.00 0.00 0.00 77 1009.6
20260506113004 37 64 0.0 5.0 0.00 0.00 0.00 78 1009.8
20260506112004 37 63 1.0 5.0 0.00 0.00 0.00 80 1009.8
20260506111505 36 63 1.0 5.0 0.00 0.00 0.00 80 1009.7
20260506110503 39 63 1.0 5.0 0.00 0.00 0.00 72 1009.7
20260506110004 39 63 1.0 5.0 0.00 0.00 0.00 72 1009.4
20260506105504 39 63 1.0 5.0 0.00 0.00 0.00 72 1009.4
20260506105004 39 63 1.0 5.0 0.00 0.00 0.00 72 1009.4
20260506103504 39 63 1.0 5.0 0.00 0.00 0.00 72 1009.3
20260506102504 39 63 1.0 5.0 0.00 0.00 0.00 72 1009.0
20260506101504 39 63 1.0 5.0 0.00 0.00 0.00 72 1008.7
20260506101004 39 63 1.0 5.0 0.00 0.00 0.00 72 1008.7
20260506100004 39 63 1.0 5.0 0.00 0.00 0.00 72 1008.5
20260506095504 39 63 1.0 5.0 0.00 0.00 0.00 72 1008.5
20260506095004 39 63 1.0 5.0 0.00 0.00 0.00 72 1008.5
20260506094504 39 63 1.0 5.0 0.00 0.00 0.00 72 1008.3
20260506094004 39 63 1.0 5.0 0.00 0.00 0.00 72 1008.3
20260506093504 39 63 1.0 5.0 0.00 0.00 0.00 72 1008.2
20260506092504 39 63 1.0 5.0 0.00 0.00 0.00 72 1008.0
20260506092004 40 61 0.0 4.0 0.00 0.00 0.00 72 1008.0
20260506091504 40 341 1.0 3.0 0.00 0.00 0.00 69 1007.8
20260506091004 40 322 1.0 5.0 0.00 0.00 0.00 67 1007.8
20260506090504 40 318 1.0 5.0 0.00 0.00 0.00 66 1007.8
20260506090004 40 317 1.0 5.0 0.00 0.00 0.00 65 1007.7
20260506085504 41 316 1.0 3.0 0.00 0.00 0.00 65 1007.7
20260506085004 41 316 1.0 3.0 0.00 0.00 0.00 64 1007.7
20260506084504 41 313 1.0 4.0 0.00 0.00 0.00 64 1007.7
20260506084004 41 312 1.0 4.0 0.00 0.00 0.00 64 1007.7
20260506083504 41 312 1.0 3.0 0.00 0.00 0.00 64 1007.7
20260506083004 41 312 1.0 3.0 0.00 0.00 0.00 63 1007.6
20260506082504 41 312 1.0 4.0 0.00 0.00 0.00 64 1007.6
20260506081504 41 309 0.0 3.0 0.00 0.00 0.00 64 1007.6
20260506080504 42 289 0.0 3.0 0.00 0.00 0.00 62 1007.6